Lexington Weather

Lexington, Massachusetts, USA

59°F
11/30/2020 6:19pm 
  • Lexington Conditions: Light rain, Mist, Overcast
  • Temperature: 59.2°F / 15.1°C 
  • Dew Point: 57.4°F 
  • Relative Humidity: 94
  • Wind: Wind from SW SW 6 mph, 10-min avg: 7 mph, gust: 18 mph
  • Barometer: 29.56 in Steady
  • Visibility: 4 miles
  • Rain Today: 0.56 in
  •   
Southeast Middlesex County - Wind Advisory - Special Weather Statement
 - SEE ALL NEARBY ALERTS -

Regional Weather Roundup
for Boston / Norton, MA

        
000
ASUS41 KBOX 271304
RWRBOX

REGIONAL WEATHER ROUNDUP
NATIONAL WEATHER SERVICE BOSTON/NORTON MA
800 AM EST FRI NOV 27 2020

NOTE:  "FAIR" INDICATES FEW OR NO CLOUDS BELOW 12,000 FEET WITH NO 
SIGNIFICANT WEATHER AND/OR OBSTRUCTIONS TO VISIBILITY.

MAZALL-271400-
EASTERN MASSACHUSETTS
  
CITY           SKY/WX    TMP DP  RH WIND       PRES   REMARKS
BOSTON         PTCLDY    45  45 100 S3        30.05R                  
BEVERLY        CLEAR     42  42 100 CALM      30.03R                  
LAWRENCE       CLEAR     38  37  97 S3        30.05R                  
BEDFORD        PTCLDY    34  33  96 CALM      30.03R                  
BLUE HILL        N/A     47  46  97 W6        30.03R                  
NORWOOD        MOCLDY    43  40  89 CALM      30.05R                  
MARSHFIELD     SUNNY     48  48 100 CALM      30.05R                  
PLYMOUTH       FOG       43  43 100 CALM      30.05R VSB 1/2          
TAUNTON        CLOUDY    44  43  96 CALM      30.05R                  
NEW BEDFORD    CLOUDY    46  45  96 CALM      30.05R                  
$$

MAZALL-271400-
CAPE COD AND THE ISLANDS
  
CITY           SKY/WX    TMP DP  RH WIND       PRES   REMARKS
FALMOUTH       SUNNY     45  45 100 CALM      30.05R                  
HYANNIS        FOG       44  44 100 CALM      30.04R VSB<1/4          
CHATHAM        FOG       46  45  96 CALM      30.06R VSB 1/4          
NANTUCKET      SUNNY     51  51 100 CALM      30.06R                  
MARTHAS VNYRD  PTSUNNY   46  46 100 CALM      30.06R                  
$$
 
MAZALL-271400-
CENTRAL AND WESTERN MASSACHUSETTS
  
CITY           SKY/WX    TMP DP  RH WIND       PRES   REMARKS
WORCESTER      MOCLDY    47  43  86 SW6       30.04R                  
FITCHBURG      FOG       38  38 100 CALM      30.05R VSB 1/4          
ORANGE         CLOUDY    38  38 100 CALM      30.06R                  
SPRINGFIELD    CLOUDY    42  42 100 CALM      30.05R                  
WESTFIELD      CLOUDY    42  42 100 CALM      30.05S                  
NORTH ADAMS    CLOUDY    50  45  83 W5        30.06R                  
PITTSFIELD     CLOUDY    47  43  86 S5        30.05R                  
$$
 
RIZALL-271400-
RHODE ISLAND
  
CITY           SKY/WX    TMP DP  RH WIND       PRES   REMARKS
PROVIDENCE     CLOUDY    46  46 100 CALM      30.06R                  
NEWPORT        CLOUDY    49  49 100 CALM      30.05S FOG              
BLOCK ISLAND   CLOUDY    52  49  89 CALM      30.07R                  
SMITHFIELD     CLOUDY    46  46 100 CALM      30.06R                  
WESTERLY       CLOUDY    48  47  96 CALM      30.06R                  
$$
 
CTZALL-271400-
CONNECTICUT
  
CITY           SKY/WX    TMP DP  RH WIND       PRES   REMARKS
BRADLEY INTL   MOCLDY    45  44  97 CALM      30.06R                  
HARTFORD       CLOUDY    47  45  93 CALM      30.07R FOG              
BRIDGEPORT     CLOUDY    51  48  89 N3        30.07R                  
DANBURY        CLOUDY    47  45  93 CALM      30.08R                  
GROTON         CLOUDY    48  47  96 CALM      30.06R                  
NEW HAVEN      CLOUDY    50  48  93 N3        30.06S                  
CHESTER        CLOUDY    50  50 100 CALM      30.06S                  
MERIDEN        CLOUDY    46  44  93 CALM      30.07R                  
WILLIMANTIC    CLOUDY    42  41  96 CALM      30.07R                  
OXFORD         CLOUDY    49  48  97 CALM      30.07R                  
$$

MEZ002-015-021-024-NHZ003-005-008-011-012-014-VTZ005-008-271400-
NORTHERN NEW ENGLAND
  
CITY           SKY/WX    TMP DP  RH WIND       PRES   REMARKS
PORTLAND ME    PTCLDY    34  34 100 NW3       30.03R                  
BANGOR ME      PTCLDY    34  33  96 CALM      30.00S                  
CONCORD NH     FOG       33  32  96 CALM      30.03S VSB<1/4          
MANCHESTER NH  FOG       35  33  92 CALM      30.02R VSB 1            
NASHUA NH      CLEAR     34  34 100 CALM      30.05R                  
PORTSMOUTH NH  PTCLDY    36  36  99 CALM      30.01R                  
JAFFREY NH     PTCLDY    35  33  92 CALM      30.03R                  
KEENE NH       FOG       40  40 100 CALM      30.05S VSB<1/4          
BURLINGTON VT  CLOUDY    46  42  86 N6        30.06R                  
MT. WASHINGTON FRZ DRZL  30  30 100 NW33        N/A  VSB 1/16WCI  14  
$$

NYZ052-076-271400-
EASTERN NEW YORK
  
CITY           SKY/WX    TMP DP  RH WIND       PRES   REMARKS
ALBANY         CLOUDY    47  43  86 W9        30.08R                  
NEW YORK CITY  PTCLDY    56  45  66 W5        30.07R                  
$$
 
ANZALL-271400-
MARINE OBSERVATIONS
  
STATION/POSITION TIME  TEMP    WIND        PRES    VSBY  WAVE
                       AIR SEA DIR/SP/G                  HT/PER
                 (UTC) (F)     (DEG/KT/KT) (MB)    (MI)  (FT/S)
BOSTON BUOY      1250   47 50  210/  4/  6 1017.5R         2/10
BUZZARDS BAY     1200          250/  7/  8 1018.2R
NANTUCKET SOUND  1250      51  230/  4/  4   N/A           1/ 4
MASS BAY-STELLWA NOT AVBL
ISLE OF SHOALS   1200   43     340/  2/  3 1016.1R
S OF BLOCK IS    1226      57                N/A           6/ 8
$$

......................KEY.........................
  SKY/WX - SKY CONDITION/PRESENT WEATHER
  TMP    - TEMPERATURE IN FAHRENHEIT
  DWPT   - DEWPOINT IN FAHRENHEIT
  RH     - RELATIVE HUMIDITY IN PERCENT
  WIND   - DIRECTION AND SPEED IN MPH
  PRES   - MEAN SEA LEVEL PRESSURE IN INCHES OF HG
  WCI    - WIND CHILL INDEX
  VSB    - VISIBILITY IN MILES
  HX     - HEAT INDEX
  TC     - TEMPERATURE IN CELSIUS
  VRB    - VARIABLE WIND DIRECTION
  N/A    - NOT AVAILABLE
  
      

Other recent Regional Weather Roundups

Mon Nov 30, 6:04pm

Mon Nov 30, 5:05pm

Mon Nov 30, 4:04pm

Mon Nov 30, 3:05pm

Mon Nov 30, 2:05pm

Mon Nov 30, 1:04pm

Mon Nov 30, 12:05pm

Mon Nov 30, 11:04am

Mon Nov 30, 10:04am

Mon Nov 30, 9:04am

Mon Nov 30, 8:04am

Mon Nov 30, 7:05am

Mon Nov 30, 6:04am

Mon Nov 30, 5:05am

Mon Nov 30, 4:04am

Mon Nov 30, 3:04am

Mon Nov 30, 2:04am

Mon Nov 30, 1:04am

Mon Nov 30, 12:04am

Sun Nov 29, 11:04pm

Sun Nov 29, 10:04pm

Sun Nov 29, 9:04pm

Sun Nov 29, 8:04pm

Sun Nov 29, 7:04pm

Sun Nov 29, 6:04pm

Sun Nov 29, 5:04pm

Sun Nov 29, 4:05pm

Sun Nov 29, 3:04pm

Sun Nov 29, 2:04pm

Sun Nov 29, 1:04pm

Sun Nov 29, 12:04pm

Sun Nov 29, 11:04am

Sun Nov 29, 10:04am

Sun Nov 29, 9:04am

Sun Nov 29, 8:05am

Sun Nov 29, 7:04am

Sun Nov 29, 6:04am

Sun Nov 29, 5:04am

Sun Nov 29, 4:04am

Sun Nov 29, 3:04am

Sun Nov 29, 2:05am

Sun Nov 29, 1:04am

Sun Nov 29, 12:04am

Sat Nov 28, 11:04pm

Sat Nov 28, 10:04pm

Sat Nov 28, 9:04pm

Sat Nov 28, 8:04pm

Sat Nov 28, 7:04pm

Sat Nov 28, 6:04pm

Sat Nov 28, 5:04pm

Sat Nov 28, 4:04pm

Sat Nov 28, 3:04pm

Sat Nov 28, 2:04pm

Sat Nov 28, 1:04pm

Sat Nov 28, 12:04pm

Sat Nov 28, 11:04am

Sat Nov 28, 10:04am

Sat Nov 28, 9:04am

Sat Nov 28, 8:04am

Sat Nov 28, 7:04am

Sat Nov 28, 6:04am

Sat Nov 28, 5:04am

Sat Nov 28, 4:04am

Sat Nov 28, 3:05am

Sat Nov 28, 2:04am

Sat Nov 28, 1:04am

Sat Nov 28, 12:04am

Fri Nov 27, 11:05pm

Fri Nov 27, 10:04pm

Fri Nov 27, 9:04pm

Fri Nov 27, 8:04pm

Fri Nov 27, 7:04pm

Fri Nov 27, 6:04pm

Fri Nov 27, 5:04pm

Fri Nov 27, 4:05pm

Fri Nov 27, 3:05pm

Fri Nov 27, 2:05pm

Fri Nov 27, 1:04pm

Fri Nov 27, 12:04pm

Fri Nov 27, 11:04am

Fri Nov 27, 10:04am

Fri Nov 27, 9:05am

Fri Nov 27, 7:04am

Fri Nov 27, 6:04am

Fri Nov 27, 5:04am

Fri Nov 27, 4:04am

Fri Nov 27, 3:04am

Fri Nov 27, 2:04am

Fri Nov 27, 1:04am

Fri Nov 27, 12:04am

Thu Nov 26, 11:04pm

Thu Nov 26, 10:04pm

Thu Nov 26, 9:04pm

Thu Nov 26, 8:04pm

Thu Nov 26, 7:04pm

Thu Nov 26, 6:04pm

Thu Nov 26, 5:04pm

Thu Nov 26, 4:04pm

Thu Nov 26, 2:04pm

Thu Nov 26, 1:04pm

Thu Nov 26, 12:04pm

Thu Nov 26, 11:04am

Thu Nov 26, 10:04am

Thu Nov 26, 9:04am

Thu Nov 26, 8:04am

Thu Nov 26, 7:04am

Thu Nov 26, 6:04am

Thu Nov 26, 5:04am

Thu Nov 26, 4:04am

Thu Nov 26, 3:04am

Thu Nov 26, 2:04am

Thu Nov 26, 1:04am

Thu Nov 26, 12:04am

Wed Nov 25, 11:04pm

Wed Nov 25, 10:04pm

Wed Nov 25, 9:04pm

Wed Nov 25, 8:04pm

Wed Nov 25, 7:04pm

Wed Nov 25, 6:04pm

Wed Nov 25, 5:04pm

Wed Nov 25, 4:04pm

Wed Nov 25, 3:05pm

Wed Nov 25, 2:04pm

Wed Nov 25, 1:04pm

Wed Nov 25, 12:05pm

Wed Nov 25, 11:04am

Wed Nov 25, 10:04am

Wed Nov 25, 9:04am

Wed Nov 25, 8:04am

Wed Nov 25, 7:04am

Wed Nov 25, 6:04am

Wed Nov 25, 5:04am

Wed Nov 25, 4:04am

Wed Nov 25, 3:04am

Wed Nov 25, 2:04am

Wed Nov 25, 1:04am

Wed Nov 25, 12:04am

Tue Nov 24, 11:04pm

Tue Nov 24, 10:04pm

Tue Nov 24, 9:04pm

Tue Nov 24, 8:04pm

Tue Nov 24, 7:04pm

Tue Nov 24, 6:04pm

Tue Nov 24, 5:04pm

Tue Nov 24, 4:05pm

Tue Nov 24, 3:05pm

Tue Nov 24, 2:05pm

Tue Nov 24, 1:05pm

Tue Nov 24, 12:04pm

Tue Nov 24, 11:04am

Tue Nov 24, 10:04am

Tue Nov 24, 9:04am

Tue Nov 24, 8:04am

Tue Nov 24, 7:04am

Tue Nov 24, 6:04am

Tue Nov 24, 5:04am

Tue Nov 24, 4:05am

Tue Nov 24, 3:04am

Tue Nov 24, 2:04am

Tue Nov 24, 1:04am

Tue Nov 24, 12:05am

Mon Nov 23, 11:04pm

Mon Nov 23, 10:04pm

Mon Nov 23, 9:04pm

Mon Nov 23, 8:04pm

Mon Nov 23, 7:04pm

Meta data:

ID: 7cd11b43-048c-40de-ae44-a1743885ebd3
Link: https://api.weather.gov/products/7cd11b43-048c-40de-ae44-a1743885ebd3